Regional Weather Roundup
Issued by NWS

Home | Current Version | Previous Version | Text Only | Print | Product List | Glossary Off
Versions: 1 2 3 4 5 6 7 8 9 10 11 12 13 14 15 16 17 18 19 20 21 22 23 24 25 26 27 28 29 30 31 32 33 34 35 36 37 38 39 40 41 42 43 44 45 46 47 48 49 50

961
ASUS43 KTOP 052108
RWRKS

WEATHER ROUNDUP FOR KANSAS
NATIONAL WEATHER SERVICE GOODLAND KS
300 PM CST FRI FEB 05 2016

NOTE:  "FAIR" INDICATES FEW OR NO CLOUDS BELOW 12,000 FEET WITH NO
SIGNIFICANT WEATHER AND/OR OBSTRUCTIONS TO VISIBILITY.

KSZ001>006-013>018-027>032-041>047-052200-
NORTHWEST KANSAS

CITY           SKY/WX    TMP DP  RH WIND       PRES   REMARKS
GOODLAND       SUNNY     35  21  56 NW18      30.25F WCI  24
HAYS           SUNNY     37  19  48 W12       30.26F WCI  30
HILL CITY      SUNNY     39  25  57 NW15G25   30.25F WCI  31
RUSSELL        PTSUNNY   38  22  52 W12       30.25F WCI  30
$$

KSZ061>065-074>080-084>089-052200-
SOUTHWEST KANSAS

CITY           SKY/WX    TMP DP  RH WIND       PRES   REMARKS
DODGE CITY     CLOUDY    39  14  36 N13       30.26F WCI  31
ELKHART          N/A     40  18  41 N23         N/A  WCI  30
GARDEN CITY    CLOUDY    40  28  62 N20       30.27S WCI  30
GREAT BEND     PTSUNNY   41  19  42 W9        30.27F
LIBERAL        MOSUNNY   43  16  33 N22G30    30.24S
PRATT          SUNNY     46  18  32 CALM      30.24S
$$

KSZ066>073-081>083-090>101-052200-
SOUTHEAST KANSAS

CITY           SKY/WX    TMP DP  RH WIND       PRES   REMARKS
CHANUTE        SUNNY     53  24  32 SW8       30.29F
COFFEYVILLE    SUNNY     55  21  26 S13       30.30F
HUTCHINSON     MOSUNNY   47  18  31 S6        30.25F
MEDICINE LODGE   N/A     50  26  39 E8        30.24F
NEWTON         CLOUDY    45  21  39 NE5       30.27F
PARSONS        SUNNY     53  22  29 S7        30.30F
WICHITA INTL   PTSUNNY   50  24  36 SW7       30.24F
WICHITA JABRA  MOSUNNY   50  22  33 S6        30.25F
WICHITA MCCONL PTSUNNY   50  24  35 SE6       30.25F
WINFIELD       SUNNY     53  25  33 S7        30.26F
$$

KSZ007>012-019>026-033>040-048>060-102>105-052200-
NORTHEAST KANSAS

CITY           SKY/WX    TMP DP  RH WIND       PRES   REMARKS
CONCORDIA      CLOUDY    41  26  55 SW8       30.24F
EMPORIA        MOSUNNY   47  22  37 CALM      30.27F
LAWRENCE       CLOUDY    42  20  41 VRB3      30.31F
MANHATTAN      PTSUNNY   44  21  40 SW9       30.27F
MARYSVILLE     CLOUDY    37  27  65 S9        30.25S
OLATHE IND     MOSUNNY   42  22  44 W5        30.32S
OLATHE EXE     MOSUNNY   41  21  44 S5        30.31S
SALINA         CLOUDY    46  18  32 CALM      30.27F
TOPEKA BILLARD CLOUDY    43  21  41 S6        30.30F
TOPEKA FORBES  CLOUDY    43  22  43 VRB3      30.29F
$$




USA.gov is the U.S. government's official web portal to all federal, state and local government web resources and services.